sat.trackr.live / text

‹ back to catalog

STARLINK-5236

NORAD 55274 · 2023-010F

PAYLOAD ACTIVE UNKNOWN

§ Identity

Operator
Country
US
Launch date
2023-01-19
Launch site
AFWTR
Launch vehicle
Mass (kg)
RCS (m²)

Purposes: comms

External: N2YO · Heavens-Above · Gunter

§ Orbital elements

Epoch: 2026-05-24T20:27:50.822784Z

Period
96.11 min
Inclination
69.9992°
Eccentricity
0.0003641
Mean motion
14.98330262 rev/d
Perigee alt
569.5 km
Apogee alt
574.6 km
Semi-major
6,950.2 km
B*
1.2918e-5
RAAN
192.5830°
Arg perigee
269.1270°
Mean anomaly
90.9472°
Rev number
18,468

§ Raw data

STARLINK-52361 55274U 23010F   26144.85267156  .00000061  00000+0  12918-4 0  99972 55274  69.9992 192.5830 0003641 269.1270  90.9472 14.98330262184684

JSON: /api/v1/satellites/55274 · /tle

For live sub-satellite position, see the globe view (requires WebGL).

§ Visibility from observer

Set your observer location to see the next 7 days of passes ≥ 10°. The values pass through the URL so the page stays shareable.

No JS? Fill the form by hand. The geolocation button needs JavaScript.